Weather History for KWYS - October, 2012

Change the Weather History Date:

Sunday, October 21, 2012

  Actual Average Record
Temperature  
Mean Temperature 36 °F -  
Max Temperature 44 °F 50 °F 64 °F (2010)
Min Temperature 28 °F 21 °F 15 °F (2013)
Degree Days  
Heating Degree Days 29    
Moisture  
Dew Point -    
Average Humidity    
Maximum Humidity    
Minimum Humidity    
Precipitation  
Precipitation 0.00 in - - ()
Sea Level Pressure  
Sea Level Pressure 29.83 in    
Wind  
Wind Speed 5 mph (SW)    
Max Wind Speed 21 mph    
Max Gust Speed 33 mph    
Visibility 10 miles    
Events      
Averages and records for this station are not official NWS values.
T = Trace of Precipitation, MM = Missing Value Source: NWS Daily Summary

Daily Weather History Graph

Daily Weather History Graph

Search for Another Location

Airport or City:

Trip Planner

Search our weather history database for the weather conditions in past years. The results will help you decide how hot, cold, wet, or windy it might be!

Date:

Astronomy

Oct. 21, 2012 Rise Set
Actual Time 7:48 AM MDT 6:28 PM MDT
Civil Twilight 7:18 AM MDT 6:58 PM MDT
Nautical Twilight 6:44 AM MDT 7:32 PM MDT
Astronomical Twilight 6:10 AM MDT 8:06 PM MDT
Moon 2:16 PM MDT (10/21) No Moon Set
Length of Visible Light 11h 40m
Length of Day
10h 40m
Waxing Crescent, 46% of the Moon is Illuminated
Oct 21
Waxing Crescent
Oct 21
First Quarter
Oct 29
Full
Nov 6
Last Quarter
Nov 13
New

Hourly Weather History & Observations

Time (MDT) Temp. Windchill Dew Point Humidity Pressure Visibility Wind Dir Wind Speed Gust Speed Precip Events Conditions
12:10 AM 33.8 °F - - N/A% 29.80 in 10.0 mi Calm Calm - N/A   Clear
12:30 AM 32.0 °F - - N/A% 29.80 in 10.0 mi Calm Calm - N/A   Scattered Clouds
12:50 AM 32.0 °F 27.5 °F - N/A% 29.80 in 10.0 mi SSW 4.6 mph - N/A   Scattered Clouds
1:10 AM 33.8 °F 29.6 °F - N/A% 29.80 in 10.0 mi WSW 4.6 mph - N/A   Partly Cloudy
1:30 AM 32.0 °F 28.7 °F - N/A% 29.80 in 10.0 mi WSW 3.5 mph - N/A   Clear
1:50 AM 32.0 °F 28.7 °F - N/A% 29.80 in 10.0 mi WSW 3.5 mph - N/A   Scattered Clouds
2:10 AM 32.0 °F 28.7 °F - N/A% 29.80 in 10.0 mi WSW 3.5 mph - N/A   Scattered Clouds
2:30 AM 32.0 °F - - N/A% 29.81 in 10.0 mi Calm Calm - N/A   Scattered Clouds
2:50 AM 30.2 °F - - N/A% 29.81 in 10.0 mi Calm Calm - N/A   Mostly Cloudy
3:10 AM 30.2 °F - - N/A% 29.81 in 10.0 mi Calm Calm - N/A   Scattered Clouds
3:30 AM 28.4 °F 24.6 °F - N/A% 29.81 in 10.0 mi WNW 3.5 mph - N/A   Scattered Clouds
3:50 AM 30.2 °F - - N/A% 29.81 in 10.0 mi Calm Calm - N/A   Mostly Cloudy
4:10 AM 30.2 °F - - N/A% 29.81 in 10.0 mi Calm Calm - N/A   Overcast
4:30 AM 28.4 °F - - N/A% 29.82 in 10.0 mi Calm Calm - N/A   Mostly Cloudy
4:50 AM 28.4 °F - - N/A% 29.81 in 10.0 mi Calm Calm - N/A   Scattered Clouds
5:10 AM 28.4 °F 24.6 °F - N/A% 29.81 in 10.0 mi NE 3.5 mph - N/A   Partly Cloudy
5:30 AM 28.4 °F 23.3 °F - N/A% 29.82 in 10.0 mi NE 4.6 mph - N/A   Partly Cloudy
5:50 AM 30.2 °F 24.3 °F - N/A% 29.82 in 10.0 mi East 5.8 mph - N/A   Partly Cloudy
6:10 AM 32.0 °F - - N/A% 29.82 in 10.0 mi Calm Calm - N/A   Partly Cloudy
6:30 AM 32.0 °F 28.7 °F - N/A% 29.82 in 10.0 mi North 3.5 mph - N/A   Partly Cloudy
6:50 AM 32.0 °F - - N/A% 29.82 in 10.0 mi Calm Calm - N/A   Clear
7:10 AM 33.8 °F 30.8 °F - N/A% 29.82 in 10.0 mi NNW 3.5 mph - N/A   Clear
7:30 AM 33.8 °F 30.8 °F - N/A% 29.82 in 10.0 mi NW 3.5 mph - N/A   Clear
7:50 AM 33.8 °F - - N/A% 29.83 in 10.0 mi Calm Calm - N/A   Clear
8:10 AM 33.8 °F 30.8 °F - N/A% 29.84 in 10.0 mi WSW 3.5 mph - N/A   Clear
8:30 AM 33.8 °F 28.6 °F - N/A% 29.84 in 10.0 mi WNW 5.8 mph - N/A   Clear
8:50 AM 33.8 °F - - N/A% 29.84 in 10.0 mi Calm Calm - N/A   Scattered Clouds
9:10 AM 35.6 °F 31.7 °F - N/A% 29.84 in 10.0 mi East 4.6 mph - N/A   Scattered Clouds
9:30 AM 35.6 °F - - N/A% 29.85 in 10.0 mi Calm Calm - N/A   Clear
9:50 AM 35.6 °F 32.8 °F - N/A% 29.85 in 10.0 mi WSW 3.5 mph - N/A   Clear
10:10 AM 37.4 °F 32.8 °F - N/A% 29.85 in 10.0 mi SW 5.8 mph - N/A   Clear
10:30 AM 37.4 °F 30.8 °F - N/A% 29.84 in 10.0 mi WSW 9.2 mph - N/A   Clear
10:50 AM 37.4 °F 32.1 °F - N/A% 29.85 in 10.0 mi WNW 6.9 mph - N/A   Clear
11:10 AM 37.4 °F 29.8 °F - N/A% 29.85 in 10.0 mi SW 11.5 mph 19.6 mph N/A   Clear
11:30 AM 39.2 °F 34.2 °F - N/A% 29.85 in 10.0 mi SW 6.9 mph - N/A   Clear
11:50 AM 39.2 °F 32.0 °F - N/A% 29.86 in 10.0 mi SW 11.5 mph 17.3 mph N/A   Clear
12:10 PM 41.0 °F 35.8 °F - N/A% 29.85 in 10.0 mi WSW 8.1 mph 18.4 mph N/A   Clear
12:30 PM 41.0 °F 33.9 °F - N/A% 29.85 in 10.0 mi SW 12.7 mph 23.0 mph N/A   Clear
12:50 PM 41.0 °F 34.3 °F - N/A% 29.85 in 10.0 mi WSW 11.5 mph 18.4 mph N/A   Scattered Clouds
1:10 PM 41.0 °F 33.5 °F - N/A% 29.84 in 10.0 mi SW 13.8 mph 17.3 mph N/A   Mostly Cloudy
1:30 PM 42.8 °F 35.4 °F - N/A% 29.84 in 10.0 mi SW 15.0 mph 21.9 mph N/A   Scattered Clouds
1:50 PM 42.8 °F 36.6 °F - N/A% 29.83 in 10.0 mi SW 11.5 mph 21.9 mph N/A   Scattered Clouds
2:10 PM 42.8 °F 38.6 °F - N/A% 29.83 in 10.0 mi WSW 6.9 mph 28.8 mph N/A   Partly Cloudy
2:30 PM 42.8 °F 37.5 °F - N/A% 29.83 in 10.0 mi WSW 9.2 mph 19.6 mph N/A   Clear
2:50 PM 42.8 °F 37.5 °F - N/A% 29.83 in 10.0 mi SW 9.2 mph 20.7 mph N/A   Clear
3:10 PM 44.6 °F 38.8 °F - N/A% 29.82 in 10.0 mi SSW 11.5 mph 17.3 mph N/A   Clear
3:30 PM 44.6 °F 38.8 °F - N/A% 29.81 in 10.0 mi SW 11.5 mph 20.7 mph N/A   Clear
3:50 PM 44.6 °F 37.4 °F - N/A% 29.81 in 10.0 mi SSW 16.1 mph 23.0 mph N/A   Clear
4:10 PM 44.6 °F 36.4 °F - N/A% 29.81 in 10.0 mi SSW 20.7 mph 26.5 mph N/A   Clear
4:30 PM 42.8 °F 34.5 °F - N/A% 29.81 in 10.0 mi SSW 18.4 mph 28.8 mph N/A   Clear
4:50 PM 42.8 °F 35.8 °F - N/A% 29.82 in 10.0 mi SSW 13.8 mph 21.9 mph N/A   Clear
5:10 PM 42.8 °F 35.4 °F - N/A% 29.83 in 10.0 mi SSW 15.0 mph 24.2 mph N/A   Partly Cloudy
5:30 PM 41.0 °F 33.9 °F - N/A% 29.83 in 10.0 mi SSW 12.7 mph 17.3 mph N/A   Mostly Cloudy
5:50 PM 41.0 °F 33.9 °F - N/A% 29.84 in 10.0 mi SSW 12.7 mph - N/A   Overcast
6:10 PM 41.0 °F 35.2 °F - N/A% 29.84 in 10.0 mi SW 9.2 mph 18.4 mph N/A   Overcast
6:30 PM 41.0 °F 34.7 °F - N/A% 29.84 in 10.0 mi SSW 10.4 mph - N/A   Overcast
6:50 PM 39.2 °F 31.6 °F - N/A% 29.84 in 10.0 mi SSW 12.7 mph - N/A   Mostly Cloudy
7:10 PM 39.2 °F 32.0 °F - N/A% 29.84 in 10.0 mi SSW 11.5 mph 18.4 mph N/A   Mostly Cloudy
7:30 PM 39.2 °F 32.0 °F - N/A% 29.84 in 10.0 mi South 11.5 mph - N/A   Overcast
7:50 PM 39.2 °F 31.6 °F - N/A% 29.84 in 10.0 mi SSW 12.7 mph - N/A   Overcast
8:10 PM 39.2 °F 32.5 °F - N/A% 29.84 in 10.0 mi SSW 10.4 mph - N/A   Overcast
8:30 PM 41.0 °F 33.9 °F - N/A% 29.83 in 10.0 mi South 12.7 mph 18.4 mph N/A   Overcast
8:50 PM 39.2 °F 32.0 °F - N/A% 29.84 in 10.0 mi South 11.5 mph - N/A   Overcast
9:10 PM 41.0 °F 33.9 °F - N/A% 29.84 in 10.0 mi SSW 12.7 mph 19.6 mph N/A   Mostly Cloudy
9:30 PM 39.2 °F 30.5 °F - N/A% 29.85 in 8.0 mi WSW 16.1 mph 33.4 mph N/A   Overcast
9:50 PM 37.4 °F 28.9 °F - N/A% 29.85 in 7.0 mi SW 13.8 mph 26.5 mph N/A   Scattered Clouds
10:10 PM 39.2 °F 32.0 °F - N/A% 29.84 in 10.0 mi SW 11.5 mph 17.3 mph N/A   Mostly Cloudy
10:30 PM 39.2 °F 34.2 °F - N/A% 29.85 in 10.0 mi SSE 6.9 mph - N/A   Overcast
10:50 PM 39.2 °F 35.9 °F - N/A% 29.85 in 10.0 mi West 4.6 mph - N/A   Overcast
11:10 PM 39.2 °F 31.2 °F - N/A% 29.85 in 10.0 mi SSW 13.8 mph 21.9 mph N/A   Overcast
11:50 PM 39.2 °F 35.0 °F - N/A% 29.84 in 10.0 mi South 5.8 mph - N/A   Mostly Cloudy